Location: Nora Junction
(43.1400°N, 93.0163°W)
Time: 22:20:37
(UTC+00:00)

Cosmos 44 Rocket - Pass Details

Date: 18 November 2025
Orbit: 637 x 741 km, 65.1° (Epoch: 14 December)

Event Time Altitude Azimuth Distance (km) Brightness Sun altitude
Rises 23:09:23 0° 197° (SSW) 2,966 7.2 -4.9°
Reaches altitude 10° 23:11:41 10° 192° (SSW) 2,073 6.3 -5.2°
Maximum altitude 23:16:14 51° 117° (ESE) 854 3.5 -6.0°
Drops below altitude 10° 23:20:58 10° 43° (NE) 2,152 5.3 -6.8°
Enters shadow 23:22:10 - 40° (NE) 2,615 5.7 -7.0°
